Location: Newark
(25.3833°N, 97.4000°E)
Time: 19:14:58
(UTC+00:00)

CAS-4A - Pass Details

Date: 06 March 2020
Orbit: 528 x 545 km, 43.0° (Epoch: 30 March)

Event Time Altitude Azimuth Distance (km) Brightness Sun altitude
Exits shadow 22:37:12 - 198° (SSW) 2,453 ? -16.7°
Reaches altitude 10° 22:39:15 10° 184° (S) 1,777 ? -16.3°
Maximum altitude 22:42:19 21° 135° (SE) 1,244 ? -15.6°
Drops below altitude 10° 22:45:22 10° 86° (E) 1,774 ? -14.9°
Sets 22:48:00 0° 70° (ENE) 2,662 ? -14.3°
